This demonstration page uses our WeatherBlox Daily Observations layout. Learn more.

Left ArrowRight Arrow

39.12711, -84.51439

Hourly Observations for May 19, 2018

Temp ( °F °C ) Dew Point ( °F °C ) Humidity (%) Winds ( mph kmh ) Pressure ( in mb ) Visibility ( mi km ) Precip ( " mm )
12:33 am 00:33 Mostly Cloudy with Light Rain 70 21.1 69 20.6 97 97 SE 7 11 29.88 1012 10 16 0.00 0.03
12:53 am 00:53 Mostly Clear 70 21.1 69 20.6 97 97 ESE 9 15 29.87 1011 10 16 0.00 0.03
1:53 am 01:53 Mostly Clear 69 20.6 68 20 96 96 S 7 11 29.88 1012 10 16 0.00 0.00
2:53 am 02:53 Clear 66 18.9 66 18.9 100 100 ENE 3 6 29.87 1012 10 16 0.00 0.00
3:31 am 03:31 Mostly Clear 66 18.9 66 18.9 100 100 Calm 29.88 1012 9 14 0.00 0.00
3:37 am 03:37 Partly Cloudy with Mist and Fog 65 18.3 65 18.3 100 100 Calm 29.88 1012 2 3 0.00 0.00
3:53 am 03:53 Mostly Cloudy with Mist and Fog 66 18.9 66 18.9 100 100 Calm 29.87 1012 1 2 0.00 0.00
4:00 am 04:00 Mostly Clear with Mist and Fog 65 18.3 65 18.3 100 100 Calm 29.88 1012 1 2 0.00 0.00
4:12 am 04:12 Clear with Mist and Fog 65 18.3 65 18.3 100 100 Calm 29.88 1012 1 1 0.00 0.00
4:19 am 04:19 Clear with Mist and Fog 65 18.3 65 18.3 100 100 Calm 29.88 1012 3 4 0.00 0.00
4:31 am 04:31 Mostly Cloudy with Mist and Fog 63 17.2 63 17.2 100 100 Calm 29.88 1012 1 2 0.00 0.00
4:38 am 04:38 Mostly Cloudy with Fog 64 17.8 64 17.8 100 100 Calm 29.88 1012 1 1 0.00 0.00
4:53 am 04:53 Mostly Cloudy with Fog 64 17.8 64 17.8 100 100 Calm 29.88 1012 1 1 0.00 0.00
5:15 am 05:15 Mostly Cloudy with Mist and Fog 64 17.8 64 17.8 100 100 Calm 29.91 1013 1 1 0.00 0.00
5:27 am 05:27 Mostly Cloudy with Mist and Fog 64 17.8 64 17.8 100 100 Calm 29.91 1013 2 3 0.00 0.00
5:46 am 05:46 Partly Cloudy with Mist and Fog 64 17.8 64 17.8 100 100 Calm 29.91 1013 4 6 0.00 0.00
5:53 am 05:53 Partly Cloudy with Mist and Fog 64 17.8 64 17.8 100 100 Calm 29.89 1012 3 5 0.00 0.00
6:34 am 06:34 Partly Cloudy with Mist and Fog 64 17.8 64 17.8 100 100 Calm 29.91 1013 2 3 0.00 0.03
6:53 am 06:53 Mostly Cloudy with Patchy Fog 64 17.8 64 17.8 100 100 Calm 29.91 1013 7 11 0.00 0.03
7:53 am 07:53 Mostly Cloudy 67 19.4 67 19.4 100 100 Calm 29.92 1013 10 16 0.00 0.00
8:53 am 08:53 Cloudy 68 20 68 20 100 100 SSW 5 7 29.92 1013 10 16 0.03 0.76
9:53 am 09:53 Cloudy with Light Rain 69 20.6 68 20 96 96 S 7 11 29.92 1013 7 11 0.00 0.03
10:14 am 10:14 Cloudy 69 20.6 68 20 96 96 S 8 13 29.91 1013 10 16 0.00 0.03
10:53 am 10:53 Cloudy 71 21.7 69 20.6 94 94 S 8 13 29.92 1013 10 16 0.00 0.03
11:35 am 11:35 Cloudy 73 22.8 69 20.6 87 87 S 12 19 29.91 1013 10 16 0.00 0.00
11:53 am 11:53 Cloudy 73 22.8 69 20.6 87 87 SSW 10 17 29.92 1013 10 16 0.00 0.00
12:17 pm 12:17 Cloudy 73 22.8 69 20.6 87 87 S 10 17 29.91 1013 10 16 0.00 0.00
12:53 pm 12:53 Cloudy 75 23.9 69 20.6 82 82 S 12 19 29.91 1013 10 16 0.00 0.00
1:06 pm 13:06 Cloudy with Light Rain 75 23.9 70 21.1 84 84 S 7 11 29.91 1013 10 16 0.00 0.03
1:46 pm 13:46 Mostly Cloudy with Thunderstorms 74 23.3 68 20 82 82 SW 14 22 29.91 1013 10 16 0.00 0.03
1:53 pm 13:53 Mostly Cloudy with Thunderstorms 73 22.8 68 20 84 84 SSW 15 24 29.91 1013 9 14 0.00 0.03
2:13 pm 14:13 Mostly Cloudy with Nearby Thunderstorms 71 21.7 67 19.4 87 87 S 8 13 29.91 1013 10 16 0.00 0.03
2:30 pm 14:30 Mostly Sunny 75 23.9 69 20.6 82 82 VRB 7 11 29.91 1013 10 16 0.00 0.03
2:53 pm 14:53 Mostly Cloudy 75 23.9 70 21.1 84 84 S 8 13 29.90 1013 10 16 0.00 0.03
3:53 pm 15:53 Mostly Cloudy 80 26.7 69 20.6 69 69 SW 13 20 29.89 1012 10 16 0.00 0.00
4:53 pm 16:53 Mostly Cloudy 78 25.6 67 19.4 69 69 WSW 14 22 29.88 1012 10 16 0.00 0.03
4:59 pm 16:59 Mostly Cloudy with Thunderstorms 78 25.6 67 19.4 69 69 WSW 13 20 29.88 1012 10 16 0.00 0.00
5:25 pm 17:25 Partly Cloudy 78 25.6 69 20.6 74 74 W 10 17 29.91 1013 10 16 0.01 0.25
5:53 pm 17:53 Mostly Sunny 77 25 68 20 74 74 W 10 17 29.89 1012 10 16 0.01 0.25
6:53 pm 18:53 Mostly Cloudy 75 23.9 67 19.4 76 76 WSW 7 11 29.90 1013 10 16 0.00 0.00
7:53 pm 19:53 Mostly Sunny 75 23.9 68 20 79 79 WSW 6 9 29.92 1013 10 16 0.00 0.00
8:53 pm 20:53 Mostly Clear 71 21.7 69 20.6 94 94 S 7 11 29.94 1014 10 16 0.00 0.00
9:53 pm 21:53 Clear 70 21.1 68 20 93 93 SSW 6 9 29.96 1015 10 16 0.00 0.00
10:53 pm 22:53 Clear 69 20.6 68 20 96 96 SSW 3 6 29.98 1015 8 13 0.00 0.00
11:53 pm 23:53 Partly Cloudy 69 20.6 69 20.6 100 100 Calm 30.00 1016 7 11 0.00 0.00

Powered by AerisWeather